TimeEDT,TemperatureF,Dew PointF,Humidity,Sea Level PressureIn,VisibilityMPH,Wind Direction,Wind SpeedMPH,Gust SpeedMPH,PrecipitationIn,Events,Conditions,WindDirDegrees,DateUTC
12:15 AM,51.8,44.6,76,29.93,10.0,WSW,3.5,-,N/A,,Overcast,240,2013-10-17 04:15:00
12:35 AM,51.8,44.6,76,29.93,10.0,WSW,4.6,-,N/A,,Overcast,240,2013-10-17 04:35:00
12:55 AM,51.8,44.6,76,29.93,10.0,WSW,3.5,-,N/A,,Overcast,240,2013-10-17 04:55:00
1:15 AM,51.8,44.6,76,29.93,10.0,WSW,4.6,-,N/A,,Overcast,250,2013-10-17 05:15:00
1:35 AM,51.8,44.6,76,29.93,10.0,Calm,Calm,-,N/A,,Overcast,0,2013-10-17 05:35:00
1:55 AM,50.0,44.6,82,29.93,10.0,WSW,3.5,-,N/A,,Overcast,250,2013-10-17 05:55:00
2:15 AM,50.0,44.6,82,29.92,10.0,Calm,Calm,-,N/A,,Overcast,0,2013-10-17 06:15:00
2:35 AM,50.0,42.8,76,29.92,10.0,Calm,Calm,-,N/A,,Mostly Cloudy,0,2013-10-17 06:35:00
2:55 AM,48.2,42.8,82,29.92,10.0,SW,3.5,-,N/A,,Scattered Clouds,220,2013-10-17 06:55:00
3:15 AM,48.2,42.8,82,29.92,10.0,SSW,3.5,-,N/A,,Mostly Cloudy,200,2013-10-17 07:15:00
3:35 AM,46.4,42.8,87,29.91,10.0,South,4.6,-,N/A,,Mostly Cloudy,190,2013-10-17 07:35:00
3:55 AM,46.4,42.8,87,29.91,10.0,SSW,4.6,-,N/A,,Mostly Cloudy,200,2013-10-17 07:55:00
4:15 AM,44.6,42.8,93,29.91,10.0,SSW,3.5,-,N/A,,Mostly Cloudy,200,2013-10-17 08:15:00
4:35 AM,44.6,42.8,93,29.91,10.0,SSW,3.5,-,N/A,,Scattered Clouds,200,2013-10-17 08:35:00
4:55 AM,44.6,42.8,93,29.90,10.0,Calm,Calm,-,N/A,,Mostly Cloudy,0,2013-10-17 08:55:00
5:15 AM,44.6,41.0,87,29.90,10.0,SSW,3.5,-,N/A,,Mostly Cloudy,200,2013-10-17 09:15:00
5:35 AM,44.6,42.8,93,29.90,10.0,Calm,Calm,-,N/A,,Mostly Cloudy,0,2013-10-17 09:35:00
5:55 AM,44.6,42.8,93,29.90,10.0,Calm,Calm,-,N/A,,Overcast,0,2013-10-17 09:55:00
6:15 AM,44.6,42.8,93,29.90,7.0,Calm,Calm,-,N/A,,Overcast,0,2013-10-17 10:15:00
6:35 AM,44.6,42.8,93,29.90,7.0,Calm,Calm,-,N/A,,Mostly Cloudy,0,2013-10-17 10:35:00
6:55 AM,42.8,41.0,93,29.90,7.0,Calm,Calm,-,N/A,,Mostly Cloudy,0,2013-10-17 10:55:00
7:15 AM,42.8,41.0,93,29.90,7.0,Calm,Calm,-,N/A,,Mostly Cloudy,0,2013-10-17 11:15:00
7:35 AM,42.8,41.0,93,29.90,7.0,Calm,Calm,-,N/A,,Mostly Cloudy,0,2013-10-17 11:35:00
7:55 AM,42.8,41.0,93,29.90,5.0,Calm,Calm,-,N/A,,Scattered Clouds,0,2013-10-17 11:55:00
8:15 AM,44.6,42.8,93,29.89,5.0,Calm,Calm,-,N/A,,Clear,0,2013-10-17 12:15:00
8:35 AM,44.6,42.8,93,29.90,7.0,Calm,Calm,-,N/A,,Clear,0,2013-10-17 12:35:00
8:55 AM,44.6,42.8,93,29.89,7.0,Calm,Calm,-,N/A,,Clear,0,2013-10-17 12:55:00
9:15 AM,46.4,42.8,87,29.91,7.0,WSW,3.5,-,N/A,,Clear,240,2013-10-17 13:15:00
9:35 AM,46.4,42.8,87,29.90,10.0,Calm,Calm,-,N/A,,Clear,0,2013-10-17 13:35:00
9:55 AM,48.2,44.6,87,29.90,10.0,WSW,3.5,-,N/A,,Clear,240,2013-10-17 13:55:00
10:15 AM,50.0,44.6,82,29.90,10.0,Calm,Calm,-,N/A,,Clear,0,2013-10-17 14:15:00
10:35 AM,50.0,44.6,82,29.88,10.0,Calm,Calm,-,N/A,,Scattered Clouds,0,2013-10-17 14:35:00
10:55 AM,50.0,44.6,82,29.89,10.0,Calm,Calm,-,N/A,,Overcast,0,2013-10-17 14:55:00
11:15 AM,50.0,44.6,82,29.89,10.0,South,6.9,-,N/A,,Overcast,190,2013-10-17 15:15:00
11:35 AM,51.8,44.6,76,29.87,10.0,SSW,3.5,-,N/A,,Scattered Clouds,210,2013-10-17 15:35:00
11:55 AM,51.8,44.6,76,29.87,10.0,SSW,3.5,-,N/A,,Mostly Cloudy,200,2013-10-17 15:55:00
12:15 PM,51.8,44.6,76,29.87,10.0,SW,3.5,-,N/A,,Mostly Cloudy,230,2013-10-17 16:15:00
12:35 PM,51.8,44.6,76,29.87,7.0,SW,3.5,-,N/A,Rain,Rain,220,2013-10-17 16:35:00
12:55 PM,51.8,46.4,82,29.85,4.0,Calm,Calm,-,N/A,Rain,Rain,0,2013-10-17 16:55:00
1:15 PM,51.8,46.4,82,29.85,5.0,SW,3.5,-,N/A,,Light Drizzle,220,2013-10-17 17:15:00
1:35 PM,51.8,46.4,82,29.85,3.0,SSW,4.6,-,N/A,Rain,Light Rain,200,2013-10-17 17:35:00
1:55 PM,50.0,46.4,87,29.84,4.0,SSW,4.6,-,N/A,Rain,Light Rain,200,2013-10-17 17:55:00
2:15 PM,50.0,46.4,87,29.83,5.0,SW,4.6,-,N/A,Rain,Light Rain,220,2013-10-17 18:15:00
2:35 PM,50.0,46.4,87,29.82,7.0,WSW,5.8,-,N/A,,Light Drizzle,240,2013-10-17 18:35:00
2:55 PM,50.0,46.4,87,29.82,7.0,SW,3.5,-,N/A,,Overcast,230,2013-10-17 18:55:00
3:15 PM,50.0,46.4,87,29.82,4.0,SW,5.8,-,N/A,Rain,Light Rain,230,2013-10-17 19:15:00
3:35 PM,50.0,46.4,87,29.81,4.0,WSW,5.8,-,N/A,,Overcast,240,2013-10-17 19:35:00
3:55 PM,51.8,46.4,82,29.81,7.0,WSW,4.6,-,N/A,,Overcast,240,2013-10-17 19:55:00
4:15 PM,51.8,46.4,82,29.80,10.0,WSW,6.9,-,N/A,,Overcast,240,2013-10-17 20:15:00
4:35 PM,51.8,46.4,82,29.79,10.0,WSW,5.8,-,N/A,,Overcast,240,2013-10-17 20:35:00
4:55 PM,51.8,46.4,82,29.80,7.0,WSW,8.1,-,N/A,,Overcast,240,2013-10-17 20:55:00
5:15 PM,50.0,46.4,87,29.80,5.0,WSW,9.2,-,N/A,,Overcast,240,2013-10-17 21:15:00
5:35 PM,51.8,46.4,82,29.80,10.0,WSW,9.2,-,N/A,,Overcast,240,2013-10-17 21:35:00
5:55 PM,51.8,46.4,82,29.79,10.0,WSW,6.9,-,N/A,,Overcast,240,2013-10-17 21:55:00
6:15 PM,51.8,44.6,76,29.79,10.0,WSW,6.9,-,N/A,,Overcast,250,2013-10-17 22:15:00
6:35 PM,51.8,44.6,76,29.80,10.0,WSW,5.8,-,N/A,,Overcast,240,2013-10-17 22:35:00
6:55 PM,51.8,44.6,76,29.80,10.0,WSW,6.9,-,N/A,,Overcast,240,2013-10-17 22:55:00
7:15 PM,50.0,44.6,82,29.81,10.0,SW,8.1,-,N/A,,Mostly Cloudy,230,2013-10-17 23:15:00
7:35 PM,50.0,44.6,82,29.82,10.0,SW,6.9,-,N/A,,Mostly Cloudy,230,2013-10-17 23:35:00
7:55 PM,50.0,44.6,82,29.83,10.0,WSW,8.1,-,N/A,,Overcast,240,2013-10-17 23:55:00
8:15 PM,50.0,44.6,82,29.83,10.0,WSW,12.7,17.3,N/A,,Overcast,240,2013-10-18 00:15:00
8:35 PM,51.8,44.6,76,29.84,10.0,WSW,11.5,18.4,N/A,,Overcast,250,2013-10-18 00:35:00
8:55 PM,51.8,44.6,76,29.84,10.0,West,8.1,20.7,N/A,,Overcast,260,2013-10-18 00:55:00
9:15 PM,51.8,44.6,76,29.85,10.0,West,13.8,23.0,N/A,,Overcast,260,2013-10-18 01:15:00
9:35 PM,50.0,44.6,82,29.86,10.0,WSW,10.4,-,N/A,,Overcast,250,2013-10-18 01:35:00
9:55 PM,50.0,44.6,82,29.87,7.0,WSW,8.1,-,N/A,,Overcast,240,2013-10-18 01:55:00
10:15 PM,50.0,44.6,82,29.87,5.0,West,6.9,-,N/A,,Light Drizzle,260,2013-10-18 02:15:00
10:35 PM,50.0,44.6,82,29.87,10.0,West,6.9,-,N/A,,Overcast,260,2013-10-18 02:35:00
10:55 PM,50.0,44.6,82,29.88,10.0,West,8.1,-,N/A,,Overcast,260,2013-10-18 02:55:00
11:15 PM,50.0,44.6,82,29.88,10.0,West,8.1,-,N/A,,Overcast,260,2013-10-18 03:15:00
11:35 PM,50.0,44.6,82,29.88,10.0,WSW,6.9,-,N/A,,Overcast,250,2013-10-18 03:35:00
11:55 PM,50.0,44.6,82,29.88,10.0,WSW,6.9,-,N/A,,Overcast,250,2013-10-18 03:55:00